Theta_e
307 307 306 306 306 306 307 307 307 307 307 306 306 306 306 307 307 313 310 313 309 299 302 308 308 302 303 299 292 298 295 293 288 283 280 284 278 284 284 288 285 282 279 278 278 271 275 294 294 287 290 295 296 294
306 306 305 305 305 306 307 306 307 307 308 306 306 306 306 307 307 312 308 314 314 306 304 309 309 309 308 306 302 299 295 296 294 288 286 288 280 286 283 281 292 284 286 283 285 284 292 295 295 295 298 296 295 294
306 305 305 305 305 306 306 306 306 306 307 307 305 303 304 307 308 312 310 311 309 298 301 303 304 310 312 311 310 299 297 305 301 298 291 286 281 286 282 285 286 292 295 286 288 293 294 296 297 299 298 296 297 297
305 305 305 305 305 305 305 305 305 306 306 305 304 304 304 304 307 311 309 310 305 297 288 298 310 307 312 312 312 310 307 306 301 296 288 287 282 292 283 286 285 290 294 291 287 293 295 297 297 297 297 297 298 300
304 304 304 304 304 304 304 304 304 302 304 305 305 305 306 305 305 311 310 308 310 302 291 292 305 308 310 310 310 309 307 303 296 289 286 286 285 288 286 285 285 295 292 287 287 293 294 295 296 298 297 298 299 299
302 302 303 304 304 304 304 303 302 302 303 305 306 306 306 306 307 311 303 309 307 308 294 287 300 301 304 308 307 307 305 303 298 292 288 291 299 289 286 287 293 298 300 298 295 299 299 298 298 299 299 300 300 294
301 302 302 302 303 304 304 303 302 302 303 303 305 305 305 304 307 304 299 305 305 306 292 289 289 298 301 303 299 300 301 300 299 291 288 288 290 294 286 285 294 298 300 299 300 298 294 295 295 299 301 296 292 289
301 301 301 301 302 302 303 304 303 303 303 304 306 306 306 305 306 305 306 305 305 302 295 287 286 289 300 290 290 296 291 296 296 294 292 289 290 287 287 294 297 299 300 299 298 297 296 297 297 296 294 289 288 286
300 300 301 301 301 301 302 303 304 304 304 305 305 306 305 303 298 304 303 303 308 302 290 286 286 285 296 292 290 288 293 286 292 289 289 292 287 288 292 294 296 298 296 296 296 297 298 297 296 290 289 288 286 285
300 300 300 300 301 301 301 303 303 304 304 304 303 298 295 297 303 304 301 295 294 294 293 287 291 288 294 287 287 287 286 287 286 287 292 286 287 293 293 296 297 297 297 297 295 294 295 289 288 288 287 287 287 285
300 301 300 301 301 301 302 302 303 304 304 300 294 290 297 302 299 294 290 290 290 288 291 291 290 288 291 287 287 286 286 285 284 282 285 280 284 288 293 294 296 297 297 295 296 295 291 289 288 287 286 285 285 284
301 301 300 300 301 301 301 302 302 300 298 298 297 299 297 293 289 289 287 287 287 287 287 287 288 292 289 292 287 286 285 285 281 287 285 282 286 291 290 290 290 291 291 290 291 290 289 288 287 285 283 283 283 283
300 300 301 300 300 300 301 300 300 300 299 297 292 288 290 286 285 286 286 285 285 285 286 286 286 286 288 289 286 285 284 283 286 284 282 284 292 290 288 288 288 289 288 288 288 289 288 287 286 284 282 283 279 282
299 299 300 300 299 299 299 300 300 299 295 288 286 283 285 282 283 283 284 285 285 285 285 285 285 285 285 285 285 283 284 284 281 278 276 285 290 291 289 288 287 286 283 285 285 285 285 284 283 281 280 279 276 280
298 300 299 299 299 299 299 299 299 295 288 286 284 281 280 283 285 285 285 285 285 287 286 285 285 286 284 283 283 282 280 279 280 280 283 285 288 288 285 286 284 283 283 284 284 283 281 280 280 282 282 281 282 278
298 299 297 298 298 299 299 296 294 290 285 286 285 283 284 284 284 285 285 285 287 286 286 286 284 283 281 282 280 280 279 278 281 284 284 285 286 286 286 287 286 286 285 285 285 285 284 279 277 282 282 281 278 277
299 294 299 298 298 299 298 292 287 286 285 284 283 286 285 284 284 285 285 285 289 286 283 284 276 277 282 280 279 283 280 283 285 285 285 285 285 285 285 286 284 285 285 285 285 284 283 283 279 279 280 284 283 283
295 296 299 299 298 296 292 292 286 284 282 284 283 284 284 285 285 285 285 286 285 284 283 281 283 279 278 277 279 283 283 284 284 284 284 285 286 285 286 284 285 284 283 283 281 283 283 279 282 282 283 284 283 282
296 297 298 298 296 287 287 284 287 281 283 284 284 284 284 284 284 285 285 286 283 282 281 279 277 277 278 280 281 282 281 281 282 283 284 285 285 285 285 285 284 284 284 284 284 282 282 284 283 283 283 281 280 279
296 296 296 297 295 282 284 280 284 281 279 280 284 283 282 282 283 285 285 285 285 284 280 274 276 277 279 280 280 280 280 281 281 280 281 283 283 284 284 283 282 283 283 284 283 279 282 282 283 283 281 280 283 285
294 293 293 293 289 287 280 282 284 284 284 283 283 283 281 282 282 283 284 284 278 275 277 279 277 280 282 281 280 280 282 283 281 279 279 279 280 280 281 282 282 281 279 279 276 280 277 279 282 282 280 282 281 282
290 293 287 288 285 284 279 284 282 279 283 282 283 282 280 279 280 281 283 278 280 278 281 279 281 281 282 284 284 284 284 283 283 281 280 279 280 280 280 280 280 276 277 276 280 281 280 281 281 282 282 279 276 283
291 289 286 284 277 279 276 285 280 280 277 280 282 279 278 279 281 282 279 281 278 282 282 283 284 285 283 283 282 281 282 282 280 280 280 279 279 278 277 277 276 274 276 278 279 278 277 277 279 280 282 282 282 282
290 284 281 274 280 276 279 276 280 281 280 279 278 276 278 279 279 276 269 276 282 281 280 280 281 281 281 280 278 278 278 279 278 277 277 276 275 276 276 276 276 275 275 275 275 274 274 274 274 275 276 277 279 279
281 273 275 269 279 277 271 271 275 276 276 277 276 275 271 272 267 265 267 276 279 279 278 277 279 280 280 278 278 278 278 276 275 274 275 275 271 271 273 274 274 272 272 270 270 270 270 270 271 271 273 273 274 276
271 272 270 269 270 276 275 270 272 272 272 273 272 275 270 268 271 266 275 277 277 277 277 278 277 276 277 277 276 275 274 275 274 272 274 274 272 268 266 266 267 267 269 268 269 267 267 268 268 269 269 270 272 275
269 269 277 281 280 281 278 277 279 277 274 273 272 271 268 266 263 275 277 277 277 278 278 278 278 277 276 275 275 272 271 271 270 271 273 272 270 269 267 265 265 266 267 266 267 266 266 266 267 267 268 270 272 273
277 274 271 277 279 280 277 276 276 276 276 278 276 271 270 268 270 273 275 277 278 277 276 276 275 274 274 272 270 267 267 266 266 268 271 268 266 264 263 261 262 267 263 262 265 265 264 265 266 267 269 270 271 269
278 281 279 276 275 274 275 275 274 278 281 275 269 267 271 272 271 273 273 274 275 275 271 270 269 269 269 269 265 263 261 262 260 257 254 253 255 258 260 258 257 260 261 262 264 265 265 266 266 268 271 269 267 266
277 279 274 271 272 274 277 279 279 280 279 277 274 273 271 269 270 271 270 269 269 268 269 267 263 262 256 256 256 260 262 256 256 256 253 254 258 261 257 258 261 260 261 262 261 261 262 262 264 267 266 266 264 263
279 279 278 277 276 278 278 280 280 281 281 281 276 271 268 266 266 266 267 266 264 263 263 259 258 255 258 259 258 255 257 260 260 259 257 258 257 253 255 257 257 257 260 260 258 258 260 260 262 262 261 261 260 260
278 276 276 274 273 277 280 278 275 276 268 277 272 271 268 262 258 262 263 262 259 257 255 253 255 258 258 259 258 256 258 256 256 258 260 259 255 254 255 256 256 257 258 254 254 257 260 258 258 257 257 257 257 257
265 261 262 260 264 264 268 264 262 263 265 267 268 263 261 261 259 262 263 258 258 255 255 254 253 254 257 256 255 254 255 253 254 260 260 262 258 256 255 253 253 250 250 250 252 255 253 253 253 256 255 255 255 255
Wind_Speed
22 20 19 18 16 14 13 12 10 9 7 7 8 10 10 12 11 4 0 2 4 4 3 4 3 5 4 3 7 5 6 5 4 5 4 4 3 6 3 5 7 8 8 4 3 2 10 7 5 8 8 4 7 6
24 20 19 17 16 14 14 12 10 9 8 7 8 10 11 11 11 2 3 3 2 6 4 1 2 2 2 5 8 1 6 4 6 6 2 3 2 1 2 4 3 3 10 8 11 10 6 7 7 5 8 7 7 8
23 20 19 17 15 14 13 11 10 9 8 8 9 11 12 12 13 5 3 2 5 4 4 4 3 6 5 4 2 7 3 6 4 4 5 3 3 4 4 7 4 5 5 3 3 6 10 7 0 5 4 5 7 6
20 19 18 17 15 14 13 11 10 10 9 10 10 11 13 14 14 6 4 2 5 4 6 4 3 4 6 6 5 3 7 7 7 4 4 3 3 4 4 4 4 6 4 5 5 5 2 3 1 6 7 8 7 7
18 18 16 15 15 14 12 11 10 11 11 9 9 10 11 12 12 6 4 4 2 6 5 3 2 4 4 6 8 7 8 6 3 3 3 4 2 3 1 2 3 5 8 5 8 7 5 6 8 8 9 7 9 7
24 20 16 14 14 13 12 11 11 11 10 9 9 9 9 9 5 4 4 4 5 2 6 2 4 5 6 6 7 5 3 4 4 5 3 3 4 5 4 4 7 6 5 5 5 5 4 7 8 6 8 9 7 8
21 21 19 16 13 11 11 11 12 11 9 8 8 7 9 9 5 4 4 2 5 2 5 3 4 5 4 4 4 4 5 2 3 3 1 3 2 4 3 5 7 8 8 3 6 9 5 4 6 7 9 8 9 9
18 17 18 16 15 13 10 9 10 10 8 6 6 5 7 10 8 4 4 6 5 6 5 4 3 5 3 2 2 3 2 3 4 2 1 3 2 2 4 9 7 9 8 6 8 1 6 7 7 8 8 10 10 8
17 17 15 13 13 11 11 10 10 10 9 5 2 5 5 6 3 2 9 11 2 4 5 3 5 5 2 2 1 4 2 2 2 1 2 3 2 6 8 6 5 6 6 8 7 7 10 11 10 8 9 6 8 6
16 14 12 11 10 10 10 11 11 11 9 4 5 5 2 2 8 8 5 5 6 4 3 2 2 1 3 1 2 2 2 1 1 4 1 2 5 6 7 7 3 5 8 14 12 8 9 9 10 7 6 5 5 4
16 13 13 14 14 13 12 12 13 12 6 3 3 2 3 7 3 4 3 3 0 2 1 0 3 3 2 4 3 1 2 0 2 5 4 3 3 5 8 3 3 6 9 8 10 11 14 11 8 6 5 4 3 1
15 13 15 15 14 12 9 7 8 4 2 3 5 3 3 5 3 4 2 1 2 2 3 1 1 1 1 2 3 1 4 2 6 2 2 3 3 4 6 8 12 14 17 18 17 15 10 7 6 6 3 3 2 2
13 13 12 12 13 13 12 14 15 13 5 3 4 5 2 3 2 3 6 1 2 2 2 1 1 1 2 3 2 2 5 5 2 2 3 2 4 6 7 10 12 12 15 13 10 10 6 5 4 3 2 2 3 4
12 14 13 12 10 11 11 9 4 4 5 5 3 4 2 2 2 1 1 1 0 1 1 1 2 2 1 2 1 3 1 1 2 1 3 2 5 6 4 3 8 7 6 9 8 6 6 4 2 3 3 3 2 5
9 9 9 11 11 12 10 11 10 4 4 4 3 3 1 2 2 1 1 1 2 0 1 2 2 2 2 2 1 2 2 1 0 2 2 1 4 3 5 7 7 5 4 6 4 3 1 1 2 4 4 5 5 5
9 4 6 9 9 11 11 6 5 3 4 3 3 3 1 2 1 2 1 1 1 0 1 1 2 2 2 1 0 1 3 3 2 1 2 1 3 6 5 3 4 3 2 2 3 3 3 3 3 6 6 4 5 5
7 3 4 9 9 9 10 4 4 5 4 3 2 3 2 3 3 1 1 0 0 1 1 1 3 3 1 1 1 2 2 2 2 2 2 3 4 3 3 2 2 2 3 4 3 3 3 4 3 3 5 6 6 6
4 4 8 10 8 4 4 4 4 4 5 2 2 1 2 2 2 2 1 2 2 1 1 1 2 2 1 1 0 2 2 2 1 3 3 4 4 3 1 1 1 1 2 3 3 3 3 3 4 4 6 7 5 6
6 6 9 11 8 3 4 5 3 4 2 2 2 2 3 2 2 1 1 3 0 2 2 3 3 1 2 2 2 1 1 2 3 2 1 0 2 3 2 2 3 3 4 4 4 3 3 5 5 4 4 3 4 3
9 14 11 8 7 4 3 4 3 3 2 3 3 2 2 1 1 0 1 2 1 2 3 2 3 3 4 3 3 2 1 1 3 3 2 2 3 3 3 2 2 4 4 5 4 3 3 4 4 4 4 3 4 8
6 5 9 6 4 5 2 1 2 1 2 2 2 2 2 0 1 1 0 1 2 2 1 3 3 3 1 1 1 3 3 3 2 4 4 1 2 1 3 4 3 2 2 4 4 6 4 4 6 6 4 5 5 5
1 5 2 3 2 3 3 3 2 2 2 1 2 3 2 2 3 1 1 1 1 3 2 2 1 2 2 1 3 3 2 3 4 4 6 4 4 4 4 4 6 4 3 3 5 6 6 6 7 8 8 6 4 8
3 3 2 2 4 3 4 2 1 2 3 2 2 3 1 1 1 2 2 2 2 3 3 2 2 2 6 7 9 10 10 8 6 5 5 3 2 3 3 3 2 4 7 7 7 6 7 9 9 10 8 8 8 9
2 2 1 1 1 2 2 1 1 1 2 2 2 2 3 3 1 1 2 1 2 3 4 6 3 5 6 9 8 8 7 5 3 3 5 5 5 5 4 4 5 6 7 6 6 7 8 9 11 10 10 11 11 11
2 5 4 3 0 2 1 2 1 2 3 2 3 1 2 3 2 1 3 1 1 2 4 6 7 7 7 6 5 6 8 6 5 3 5 4 1 3 5 5 4 6 8 8 9 10 9 9 9 10 11 11 14 15
2 4 5 5 2 3 4 3 4 6 3 2 3 2 2 3 3 4 1 2 2 2 4 4 4 4 6 5 4 5 5 4 2 2 5 6 7 5 4 5 6 5 8 8 8 9 11 11 11 14 12 14 16 15
2 4 2 1 1 1 1 1 1 3 3 3 3 2 3 3 4 1 2 4 2 3 4 5 5 5 5 3 6 4 3 4 2 2 4 7 7 7 6 6 8 7 8 9 9 9 11 12 12 12 13 12 11 12
2 2 3 2 2 1 1 1 1 2 2 1 4 3 5 4 2 2 3 2 3 6 6 6 6 5 5 6 4 3 5 5 5 4 3 3 4 3 4 1 2 9 6 6 8 9 10 11 12 14 15 14 5 8
1 1 2 3 3 3 1 2 2 1 3 2 4 2 3 3 3 2 3 3 4 5 5 5 5 4 5 5 4 3 3 4 7 6 4 4 4 4 2 3 3 4 5 7 10 12 14 12 13 13 9 5 5 6
2 1 2 0 2 0 1 3 2 3 2 3 4 4 3 3 3 4 4 4 5 4 5 5 3 5 3 3 3 4 3 3 3 5 2 3 4 4 4 5 8 7 6 7 8 11 12 10 11 5 7 6 5 5
2 2 0 1 2 2 1 1 1 1 2 3 3 5 4 3 2 3 4 2 4 5 5 4 4 3 3 4 3 3 3 3 3 3 2 2 1 3 4 5 5 5 6 6 7 8 9 6 5 6 6 7 7 6
2 3 2 1 1 1 2 2 3 2 2 1 3 4 3 4 3 3 2 3 5 4 1 2 3 3 2 1 2 2 3 2 3 3 4 0 2 4 4 4 4 4 4 5 6 6 6 5 4 5 5 6 6 7
3 4 4 3 5 5 4 4 4 3 4 3 3 3 2 4 3 3 2 2 4 4 2 2 3 2 1 4 2 1 2 3 5 6 5 4 4 4 4 3 2 3 4 5 5 5 5 5 4 6 5 5 6 6
Wind_Direction
136 140 137 134 132 131 123 119 113 105 90 67 45 31 20 23 20 72 196 5 113 107 336 17 27 123 94 114 136 205 54 344 44 70 119 201 164 224 135 181 179 165 149 194 105 92 280 188 119 172 206 163 158 159
135 135 134 132 130 127 121 120 114 105 93 69 50 35 20 17 14 58 72 337 62 86 164 352 92 40 6 171 129 125 157 160 168 91 153 125 199 152 143 226 122 223 187 181 182 211 238 215 195 193 163 156 172 153
128 135 132 131 131 128 125 121 114 103 89 70 51 39 21 9 11 62 112 350 55 77 5 50 14 334 24 3 195 120 304 155 137 138 151 163 189 130 169 236 190 252 156 185 106 240 226 243 75 142 151 146 139 138
124 127 130 131 130 129 127 121 113 100 82 71 56 42 27 13 3 51 81 340 78 95 106 279 319 18 321 6 46 94 129 68 95 77 107 139 169 180 217 210 167 207 131 205 253 288 48 355 153 144 118 122 132 148
113 117 120 123 124 123 121 118 111 103 94 80 63 46 32 17 7 63 74 29 48 122 162 254 310 345 358 22 60 79 100 104 111 85 105 207 192 103 202 66 262 197 201 173 230 218 201 207 173 157 144 164 159 149
80 89 100 106 110 114 113 109 107 108 102 85 66 47 21 357 8 58 40 357 5 63 94 74 284 12 344 15 70 87 76 94 100 132 192 240 242 118 163 209 257 252 243 198 230 199 202 151 152 157 156 157 148 122
72 80 82 91 99 104 109 105 111 111 104 86 72 47 27 16 66 82 153 260 336 61 84 42 342 328 330 36 36 16 21 58 114 140 165 176 280 116 170 222 231 242 250 209 130 110 57 160 183 163 148 127 106 100
69 75 81 80 85 93 114 121 117 116 107 90 70 41 49 87 101 49 356 359 343 88 64 113 265 8 344 22 30 350 33 9 0 141 66 169 14 94 251 238 232 231 242 152 176 38 163 140 127 125 104 119 110 114
66 70 74 76 80 89 101 127 134 124 122 115 61 17 35 33 47 296 316 316 18 110 123 101 151 219 20 56 37 19 42 27 310 182 232 111 201 220 229 223 236 232 196 179 140 120 124 136 121 110 113 103 111 123
54 62 65 68 73 84 105 118 132 132 132 112 34 50 40 320 306 314 16 28 17 343 51 146 118 185 87 40 23 66 4 198 241 245 83 185 252 295 276 256 250 246 163 145 132 137 126 100 108 109 121 111 118 119
48 50 53 63 70 79 83 96 112 115 65 42 69 86 256 295 41 34 61 77 10 4 16 323 159 140 299 120 170 165 177 194 246 250 176 253 268 270 318 305 200 122 107 83 91 100 108 121 136 142 106 105 86 91
46 56 58 60 64 56 62 87 88 64 63 107 111 96 29 24 29 81 182 360 114 215 354 53 41 67 17 84 95 225 170 130 243 147 160 256 271 345 19 54 82 91 92 81 83 94 108 107 84 100 87 36 4 287
48 52 57 56 55 56 59 68 79 110 126 61 53 62 49 340 120 205 190 183 103 355 343 344 73 101 29 43 90 147 195 216 101 178 225 267 38 62 61 80 77 91 97 110 104 82 102 113 80 62 359 303 259 278
51 52 54 44 39 44 48 55 108 92 60 64 62 76 64 121 65 104 84 84 135 293 58 48 38 73 348 96 106 205 198 88 208 215 245 340 6 73 61 53 108 109 112 106 99 99 74 57 344 323 271 269 264 275
32 29 53 32 27 21 26 32 26 53 80 79 65 78 72 114 88 109 64 77 348 101 74 80 66 51 26 82 35 84 29 249 143 52 345 331 21 52 86 60 31 36 69 82 91 85 23 342 318 302 289 271 257 257
6 45 31 18 19 12 7 22 31 55 50 76 70 103 72 104 73 80 73 76 182 98 358 68 113 83 30 93 123 240 165 45 61 207 254 17 36 35 21 94 168 209 81 68 25 11 359 332 282 278 301 292 276 250
29 49 350 9 358 352 16 62 39 47 99 62 53 49 97 68 73 66 59 352 308 83 38 54 82 192 118 102 84 32 78 149 217 239 198 186 183 158 127 83 39 20 24 16 7 348 303 290 311 328 311 295 277 270
48 16 30 17 355 354 11 28 66 54 64 67 102 84 72 35 106 64 345 341 70 121 76 103 121 55 39 58 223 198 189 224 200 170 168 169 165 178 143 56 40 17 336 304 264 276 276 311 304 280 282 287 297 287
45 33 27 12 5 58 28 356 55 80 64 100 77 40 64 73 39 56 344 324 205 165 93 44 90 184 217 227 194 262 192 171 171 186 172 39 333 307 315 336 338 326 312 300 301 280 265 269 249 267 268 274 273 280
55 32 16 6 17 66 41 335 54 93 137 214 87 87 95 111 176 335 320 351 26 44 34 90 203 221 185 233 200 171 162 118 95 48 345 2 8 36 14 327 287 299 301 300 295 289 305 305 285 278 278 275 278 296
30 350 14 24 13 41 127 228 36 111 132 99 137 94 79 359 129 177 263 324 55 167 238 219 216 248 225 123 114 106 74 94 133 156 188 278 284 322 325 330 339 343 359 338 331 318 321 304 308 308 287 278 262 263
27 28 43 11 56 2 49 326 138 266 71 149 91 105 134 177 173 195 228 72 219 247 218 211 223 152 142 141 58 54 129 103 67 47 27 29 32 23 26 18 23 4 356 337 352 338 326 320 319 319 299 282 279 303
46 39 49 31 51 53 275 2 93 135 146 193 92 128 189 147 131 48 197 213 235 348 326 8 19 46 81 68 67 47 34 63 64 48 35 36 67 53 21 1 355 14 5 360 350 342 338 332 338 334 326 317 310 305
47 57 157 163 188 249 354 3 332 82 82 147 163 203 171 154 76 137 230 190 73 337 18 3 7 101 69 61 63 48 25 21 37 49 34 25 23 10 355 2 48 40 12 342 347 348 341 341 333 332 331 327 321 309
50 288 106 282 320 102 109 295 213 107 185 196 121 152 249 79 115 145 215 149 65 40 40 15 43 57 87 81 71 64 41 22 13 5 23 26 9 19 32 28 36 45 10 352 352 346 336 330 328 324 324 322 318 311
198 243 150 202 240 190 188 187 209 192 163 154 194 170 74 104 153 230 117 76 68 39 57 42 42 70 70 57 58 47 21 352 350 34 40 56 51 53 27 15 1 357 5 342 335 336 330 325 323 321 319 314 314 311
253 270 252 226 244 336 324 172 159 118 151 172 171 134 85 166 231 109 100 18 52 48 69 65 56 54 59 56 86 54 24 15 34 328 90 82 69 56 43 17 1 345 336 332 329 329 321 318 315 315 308 307 307 311
227 159 178 230 218 163 128 17 52 157 216 167 104 168 184 183 119 40 49 21 36 87 70 63 57 49 61 75 68 51 35 359 6 44 80 73 67 54 40 357 290 331 322 319 318 324 321 315 313 308 309 305 359 10
340 9 52 23 360 32 125 209 235 21 340 130 125 123 100 58 354 24 27 21 44 73 73 64 38 43 47 49 44 51 61 61 60 57 18 315 327 314 327 317 308 321 323 318 322 326 319 315 311 309 333 32 39 31
341 347 81 111 158 98 46 344 30 359 353 86 104 102 84 66 19 357 23 35 55 52 67 74 49 58 49 51 348 360 18 49 96 122 155 282 271 315 337 333 334 327 320 318 321 322 321 330 321 351 13 20 30 32
319 319 217 103 77 54 52 285 206 72 57 88 59 82 101 123 21 13 25 42 79 63 65 46 29 13 38 20 44 44 350 343 13 336 298 268 316 316 301 302 297 302 312 321 319 317 319 318 351 3 22 25 28 32
350 360 317 36 19 290 22 11 0 338 359 139 82 102 131 78 54 337 325 67 57 60 32 100 59 347 341 39 67 66 94 289 323 316 341 323 281 283 292 297 309 314 327 322 318 320 326 0 2 14 10 22 24 25
25 23 21 47 6 357 320 70 9 353 27 52 36 98 86 118 149 217 314 91 143 160 168 226 240 267 132 131 132 279 336 292 300 339 337 337 329 321 318 314 349 3 1 345 337 335 1 17 17 20 20 26 26 21